Flag for U.S.A. Weather past 2 weeks in Norfolk, Virginia, U.S.A.

Now
82 °F

Scattered clouds.


Feels Like: 87 °F
Forecast: 76 / 92 °F
Wind: 8 mph from Southwest

Location: Norfolk Naval Air Station

Current Time: Jul 14, 2014 at 10:06:42 AM

Latest Report: Jul 14, 2014 at 8:59 AM


Visibility: 10 mi

Pressure: 29.99 "Hg

Humidity: 74%

Dew point: 73 °F

Location of NorfolkLocation

Historic Weather in Norfolk — Graph

°F

Norfolk temperature yesterday

Maximum temperature yesterday: 92 °F (at 2:59 PM)
Minimum temperature yesterday: 73 °F (at 1:59 AM)
Average temperature yesterday: 82 °F

Past Weeks' High & Low Weather Summary

 TemperatureHumidityPressure
High95 °F (Jul 2, 4:59 PM)93% (Jul 9, 8:59 PM)30.25 "Hg (Jul 9, 8:59 PM)
Low67 °F (Jun 30, 4:59 AM)27% (Jul 5, 5:59 PM)29.71 "Hg (Jul 4, 4:59 AM)
Average81 °F68%30.04 "Hg
* Reported Jun 29 8:59 AM — Jul 14 8:59 AM, Norfolk, Weather by CustomWeather, © 2014

Note: Actual official high and low records may vary slightly from our data, if they occured in-between our weather recording intervals... More about our weather records

Advertising

Norfolk weather history for previous 24 hours

 ConditionsComfort  
Time TempWeatherWind HumidityBarometerVisibility
8:59 AM
Jul 14
82 °FScattered clouds.8 mph74%29.99 "Hg10 mi
7:59 AM80 °FScattered clouds.7 mph79%30.00 "Hg10 mi
6:59 AM78 °FScattered clouds.12 mph82%30.00 "Hg10 mi
5:59 AM77 °FPassing clouds.10 mph85%29.99 "Hg10 mi
4:59 AM77 °FPassing clouds.10 mph85%29.99 "Hg10 mi
3:59 AM78 °FPassing clouds.10 mph84%30.00 "Hg10 mi
2:59 AM78 °FPassing clouds.12 mph84%30.00 "Hg10 mi
1:59 AM79 °FPassing clouds.12 mph82%30.00 "Hg10 mi
12:59 AM80 °FPassing clouds.10 mph79%30.01 "Hg10 mi
11:59 PM
Jul 13
81 °FPassing clouds.8 mph77%30.01 "Hg10 mi
10:59 PM82 °FPassing clouds.10 mph74%30.03 "Hg10 mi
9:59 PM84 °FPartly cloudy.8 mph63%30.02 "Hg10 mi
8:59 PM85 °FBroken clouds.6 mph59%30.01 "Hg10 mi
7:59 PM87 °FPartly sunny.10 mph57%30.02 "Hg10 mi
6:59 PM89 °FPartly sunny.10 mph48%30.01 "Hg10 mi
5:59 PM89 °FBroken clouds.13 mph46%30.01 "Hg10 mi
4:59 PM90 °FBroken clouds.10 mph38%30.02 "Hg10 mi
3:59 PM91 °FScattered clouds.8 mph44%30.04 "Hg10 mi
2:59 PM92 °FScattered clouds.9 mph43%30.06 "Hg10 mi
1:59 PM90 °FPartly sunny.12 mph47%30.09 "Hg10 mi
12:59 PM89 °FBroken clouds.9 mph52%30.10 "Hg10 mi
11:59 AM87 °FBroken clouds.9 mph59%30.12 "Hg10 mi
10:59 AM85 °FBroken clouds.9 mph65%30.12 "Hg10 mi
Weather by CustomWeather, © 2014

See weather overviewHow to use our weather pages